{"data":{"norad_id":63855,"epoch":"2026-05-25T00:00:59.616000Z","epoch_age_seconds":82387,"freshness":"FRESH","line1":"1 63855U 25093V   26145.00069000  .00016472  00000+0  60632-3 0  9998","line2":"2 63855  43.0043   6.8580 0001320 271.3960  88.6740 15.27604584 59429","mean_motion":15.27604584,"eccentricity":0.000132,"inclination_deg":43.0043,"raan_deg":6.858,"arg_perigee_deg":271.396,"mean_anomaly_deg":88.674,"bstar":0.00060632,"rev_number":5942,"period_min":94.265231662855,"perigee_km":482.06981683899,"apogee_km":483.88115053468,"semimajor_km":6861.1124836868,"source":"CELESTRAK","updated_at":"2026-05-25T13:38:20.150087Z"}}